Year,Month,Day,Hour,Minute,Value (Times are PST for temperature in C)
2009,04,24,00,00,5.60
2009,04,24,00,01,5.60
2009,04,24,00,02,5.60
2009,04,24,00,03,5.50
2009,04,24,00,04,5.50
2009,04,24,00,05,5.50
2009,04,24,00,06,5.50
2009,04,24,00,07,5.40
2009,04,24,00,08,5.40
2009,04,24,00,09,5.30
2009,04,24,00,10,5.30
2009,04,24,00,11,5.30
2009,04,24,00,12,5.30
2009,04,24,00,13,5.30
2009,04,24,00,14,5.30
2009,04,24,00,15,5.30
2009,04,24,00,16,5.30
2009,04,24,00,17,5.30
2009,04,24,00,18,5.30
2009,04,24,00,19,5.30
2009,04,24,00,20,5.30
2009,04,24,00,21,5.30
2009,04,24,00,22,5.30
2009,04,24,00,23,5.30
2009,04,24,00,24,5.30
2009,04,24,00,25,5.20
2009,04,24,00,26,5.20
2009,04,24,00,27,5.10
2009,04,24,00,28,5.10
2009,04,24,00,29,5.10
2009,04,24,00,30,5.10
2009,04,24,00,31,5.10
2009,04,24,00,32,5.10
2009,04,24,00,33,5.10
2009,04,24,00,34,5.10
2009,04,24,00,35,4.90
2009,04,24,00,36,4.90
2009,04,24,00,37,4.90
2009,04,24,00,38,4.90
2009,04,24,00,39,4.90
2009,04,24,00,40,4.90
2009,04,24,00,41,4.80
2009,04,24,00,42,4.80
2009,04,24,00,43,4.70
2009,04,24,00,44,4.70
2009,04,24,00,45,4.60
2009,04,24,00,46,4.60
2009,04,24,00,47,4.60
2009,04,24,00,48,4.60
2009,04,24,00,49,4.60
2009,04,24,00,50,4.60
2009,04,24,00,51,4.50
2009,04,24,00,52,4.50
2009,04,24,00,53,4.60
2009,04,24,00,54,4.60
2009,04,24,00,55,4.60
2009,04,24,00,56,4.60
2009,04,24,00,57,4.60
2009,04,24,00,58,4.60
2009,04,24,00,59,4.60
2009,04,24,01,00,4.60
2009,04,24,01,01,4.50
2009,04,24,01,02,4.50
2009,04,24,01,03,4.50
2009,04,24,01,04,4.50
2009,04,24,01,05,4.60
2009,04,24,01,06,4.50
2009,04,24,01,07,4.60
2009,04,24,01,08,4.60
2009,04,24,01,09,4.50
2009,04,24,01,10,4.50
2009,04,24,01,11,4.50
2009,04,24,01,12,4.50
2009,04,24,01,13,4.50
2009,04,24,01,14,4.50
2009,04,24,01,15,4.50
2009,04,24,01,16,4.50
2009,04,24,01,17,4.50
2009,04,24,01,18,4.40
2009,04,24,01,19,4.40
2009,04,24,01,20,4.40
2009,04,24,01,21,4.40
2009,04,24,01,22,4.40
2009,04,24,01,23,4.40
2009,04,24,01,24,4.40
2009,04,24,01,25,4.40
2009,04,24,01,26,4.40
2009,04,24,01,27,4.30
2009,04,24,01,28,4.30
2009,04,24,01,29,4.30
2009,04,24,01,30,4.30
2009,04,24,01,31,4.30
2009,04,24,01,32,4.30
2009,04,24,01,33,4.40
2009,04,24,01,34,4.40
2009,04,24,01,35,4.40
2009,04,24,01,36,4.50
2009,04,24,01,37,4.50
2009,04,24,01,38,4.50
2009,04,24,01,39,4.60
2009,04,24,01,40,4.60
2009,04,24,01,41,4.60
2009,04,24,01,42,4.60
2009,04,24,01,43,4.70
2009,04,24,01,44,4.70
2009,04,24,01,45,4.70
2009,04,24,01,46,4.70
2009,04,24,01,47,4.80
2009,04,24,01,48,4.80
2009,04,24,01,49,4.80
2009,04,24,01,50,4.80
2009,04,24,01,51,4.70
2009,04,24,01,52,4.70
2009,04,24,01,53,4.70
2009,04,24,01,54,4.60
2009,04,24,01,55,4.60
2009,04,24,01,56,4.60
2009,04,24,01,57,4.50
2009,04,24,01,58,4.50
2009,04,24,01,59,4.40
2009,04,24,02,00,4.40
2009,04,24,02,01,4.30
2009,04,24,02,02,4.30
2009,04,24,02,03,4.20
2009,04,24,02,04,4.20
2009,04,24,02,05,4.20
2009,04,24,02,06,4.20
2009,04,24,02,07,4.10
2009,04,24,02,08,4.10
2009,04,24,02,09,4.10
2009,04,24,02,10,4.10
2009,04,24,02,11,4.10
2009,04,24,02,12,4.10
2009,04,24,02,13,4.10
2009,04,24,02,14,4.00
2009,04,24,02,15,4.00
2009,04,24,02,16,4.00
2009,04,24,02,17,4.00
2009,04,24,02,18,3.90
2009,04,24,02,19,3.90
2009,04,24,02,20,3.90
2009,04,24,02,21,3.80
2009,04,24,02,22,3.80
2009,04,24,02,23,3.80
2009,04,24,02,24,3.80
2009,04,24,02,25,3.80
2009,04,24,02,26,3.70
2009,04,24,02,27,3.70
2009,04,24,02,28,3.60
2009,04,24,02,29,3.60
2009,04,24,02,30,3.60
2009,04,24,02,31,3.60
2009,04,24,02,32,3.60
2009,04,24,02,33,3.60
2009,04,24,02,34,3.60
2009,04,24,02,35,3.60
2009,04,24,02,36,3.50
2009,04,24,02,37,3.50
2009,04,24,02,38,3.50
2009,04,24,02,39,3.50
2009,04,24,02,40,3.50
2009,04,24,02,41,3.40
2009,04,24,02,42,3.40
2009,04,24,02,43,3.40
2009,04,24,02,44,3.40
2009,04,24,02,45,3.40
2009,04,24,02,46,3.30
2009,04,24,02,47,3.30
2009,04,24,02,48,3.30
2009,04,24,02,49,3.30
2009,04,24,02,50,3.30
2009,04,24,02,51,3.30
2009,04,24,02,52,3.30
2009,04,24,02,53,3.30
2009,04,24,02,54,3.30
2009,04,24,02,55,3.30
2009,04,24,02,56,3.30
2009,04,24,02,57,3.30
2009,04,24,02,58,3.30
2009,04,24,02,59,3.30
2009,04,24,03,00,3.30
2009,04,24,03,01,3.30
2009,04,24,03,02,3.30
2009,04,24,03,03,3.30
2009,04,24,03,04,3.30
2009,04,24,03,05,3.30
2009,04,24,03,06,3.30
2009,04,24,03,07,3.30
2009,04,24,03,08,3.20
2009,04,24,03,09,3.20
2009,04,24,03,10,3.20
2009,04,24,03,11,3.10
2009,04,24,03,12,3.10
2009,04,24,03,13,3.10
2009,04,24,03,14,3.00
2009,04,24,03,15,2.90
2009,04,24,03,16,2.90
2009,04,24,03,17,2.90
2009,04,24,03,18,2.80
2009,04,24,03,19,2.80
2009,04,24,03,20,2.70
2009,04,24,03,21,2.70
2009,04,24,03,22,2.70
2009,04,24,03,23,2.60
2009,04,24,03,24,2.50
2009,04,24,03,25,2.50
2009,04,24,03,26,2.40
2009,04,24,03,27,2.40
2009,04,24,03,28,2.30
2009,04,24,03,29,2.30
2009,04,24,03,30,2.30
2009,04,24,03,31,2.30
2009,04,24,03,32,2.30
2009,04,24,03,33,2.30
2009,04,24,03,34,2.30
2009,04,24,03,35,2.30
2009,04,24,03,36,2.30
2009,04,24,03,37,2.40
2009,04,24,03,38,2.50
2009,04,24,03,39,2.50
2009,04,24,03,40,2.50
2009,04,24,03,41,2.60
2009,04,24,03,42,2.60
2009,04,24,03,43,2.60
2009,04,24,03,44,2.60
2009,04,24,03,45,2.60
2009,04,24,03,46,2.60
2009,04,24,03,47,2.60
2009,04,24,03,48,2.50
2009,04,24,03,49,2.50
2009,04,24,03,50,2.50
2009,04,24,03,51,2.50
2009,04,24,03,52,2.50
2009,04,24,03,53,2.40
2009,04,24,03,54,2.40
2009,04,24,03,55,2.40
2009,04,24,03,56,2.40
2009,04,24,03,57,2.30
2009,04,24,03,58,2.30
2009,04,24,03,59,2.30
2009,04,24,04,00,2.30
2009,04,24,04,01,2.30
2009,04,24,04,02,2.20
2009,04,24,04,03,2.20
2009,04,24,04,04,2.20
2009,04,24,04,05,2.20
2009,04,24,04,06,2.20
2009,04,24,04,07,2.20
2009,04,24,04,08,2.20
2009,04,24,04,09,2.20
2009,04,24,04,10,2.20
2009,04,24,04,11,2.10
2009,04,24,04,12,2.10
2009,04,24,04,13,2.10
2009,04,24,04,14,2.10
2009,04,24,04,15,2.00
2009,04,24,04,16,2.00
2009,04,24,04,17,2.00
2009,04,24,04,18,2.00
2009,04,24,04,19,2.00
2009,04,24,04,20,2.00
2009,04,24,04,21,2.00
2009,04,24,04,22,1.90
2009,04,24,04,23,1.90
2009,04,24,04,24,1.90
2009,04,24,04,25,1.90
2009,04,24,04,26,1.80
2009,04,24,04,27,1.80
2009,04,24,04,28,1.80
2009,04,24,04,29,1.80
2009,04,24,04,30,1.70
2009,04,24,04,31,1.70
2009,04,24,04,32,1.60
2009,04,24,04,33,1.60
2009,04,24,04,34,1.60
2009,04,24,04,35,1.50
2009,04,24,04,36,1.50
2009,04,24,04,37,1.50
2009,04,24,04,38,1.40
2009,04,24,04,39,1.40
2009,04,24,04,40,1.30
2009,04,24,04,41,1.30
2009,04,24,04,42,1.30
2009,04,24,04,43,1.30
2009,04,24,04,44,1.30
2009,04,24,04,45,1.30
2009,04,24,04,46,1.30
2009,04,24,04,47,1.30
2009,04,24,04,48,1.30
2009,04,24,04,49,1.30
2009,04,24,04,50,1.30
2009,04,24,04,51,1.30
2009,04,24,04,52,1.30
2009,04,24,04,53,1.30
2009,04,24,04,54,1.30
2009,04,24,04,55,1.30
2009,04,24,04,56,1.30
2009,04,24,04,57,1.30
2009,04,24,04,58,1.30
2009,04,24,04,59,1.30
2009,04,24,05,00,1.30
2009,04,24,05,01,1.30
2009,04,24,05,02,1.30
2009,04,24,05,03,1.30
2009,04,24,05,04,1.30
2009,04,24,05,05,1.30
2009,04,24,05,06,1.30
2009,04,24,05,07,1.30
2009,04,24,05,08,1.40
2009,04,24,05,09,1.40
2009,04,24,05,10,1.40
2009,04,24,05,11,1.40
2009,04,24,05,12,1.30
2009,04,24,05,13,1.30
2009,04,24,05,14,1.30
2009,04,24,05,15,1.30
2009,04,24,05,16,1.30
2009,04,24,05,17,1.30
2009,04,24,05,18,1.20
2009,04,24,05,19,1.20
2009,04,24,05,20,1.20
2009,04,24,05,21,1.20
2009,04,24,05,22,1.10
2009,04,24,05,23,1.10
2009,04,24,05,24,1.10
2009,04,24,05,25,1.10
2009,04,24,05,26,1.10
2009,04,24,05,27,1.10
2009,04,24,05,28,1.10
2009,04,24,05,29,1.20
2009,04,24,05,30,1.20
2009,04,24,05,31,1.20
2009,04,24,05,32,1.30
2009,04,24,05,33,1.30
2009,04,24,05,34,1.30
2009,04,24,05,35,1.40
2009,04,24,05,36,1.50
2009,04,24,05,37,1.50
2009,04,24,05,38,1.60
2009,04,24,05,39,1.60
2009,04,24,05,40,1.70
2009,04,24,05,41,1.80
2009,04,24,05,42,1.80
2009,04,24,05,43,1.80
2009,04,24,05,44,1.80
2009,04,24,05,45,1.80
2009,04,24,05,46,1.80
2009,04,24,05,47,1.80
2009,04,24,05,48,1.80
2009,04,24,05,49,1.70
2009,04,24,05,50,1.70
2009,04,24,05,51,1.60
2009,04,24,05,52,1.60
2009,04,24,05,53,1.60
2009,04,24,05,54,1.50
2009,04,24,05,55,1.50
2009,04,24,05,56,1.50
2009,04,24,05,57,1.40
2009,04,24,05,58,1.40
2009,04,24,05,59,1.40
2009,04,24,06,00,1.40
2009,04,24,06,01,1.30
2009,04,24,06,02,1.30
2009,04,24,06,03,1.30
2009,04,24,06,04,1.30
2009,04,24,06,05,1.30
2009,04,24,06,06,1.30
2009,04,24,06,07,1.30
2009,04,24,06,08,1.30
2009,04,24,06,09,1.30
2009,04,24,06,10,1.30
2009,04,24,06,11,1.30
2009,04,24,06,12,1.30
2009,04,24,06,13,1.30
2009,04,24,06,14,1.30
2009,04,24,06,15,1.30
2009,04,24,06,16,1.30
2009,04,24,06,17,1.30
2009,04,24,06,18,1.30
2009,04,24,06,19,1.40
2009,04,24,06,20,1.50
2009,04,24,06,21,1.50
2009,04,24,06,22,1.60
2009,04,24,06,23,1.60
2009,04,24,06,24,1.70
2009,04,24,06,25,1.70
2009,04,24,06,26,1.60
2009,04,24,06,27,1.60
2009,04,24,06,28,1.60
2009,04,24,06,29,1.60
2009,04,24,06,30,1.60
2009,04,24,06,31,1.60
2009,04,24,06,32,1.60
2009,04,24,06,33,1.60
2009,04,24,06,34,1.60
2009,04,24,06,35,1.60
2009,04,24,06,36,1.60
2009,04,24,06,37,1.60
2009,04,24,06,38,1.50
2009,04,24,06,39,1.50
2009,04,24,06,40,1.50
2009,04,24,06,41,1.50
2009,04,24,06,42,1.50
2009,04,24,06,43,1.40
2009,04,24,06,44,1.40
2009,04,24,06,45,1.40
2009,04,24,06,46,1.40
2009,04,24,06,47,1.30
2009,04,24,06,48,1.30
2009,04,24,06,49,1.30
2009,04,24,06,50,1.30
2009,04,24,06,51,1.30
2009,04,24,06,52,1.30
2009,04,24,06,53,1.30
2009,04,24,06,54,1.30
2009,04,24,06,55,1.30
2009,04,24,06,56,1.30
2009,04,24,06,57,1.30
2009,04,24,06,58,1.30
2009,04,24,06,59,1.30
2009,04,24,07,00,1.30
2009,04,24,07,01,1.30
2009,04,24,07,02,1.30
2009,04,24,07,03,1.30
2009,04,24,07,04,1.30
2009,04,24,07,05,1.30
2009,04,24,07,06,1.30
2009,04,24,07,07,1.40
2009,04,24,07,08,1.40
2009,04,24,07,09,1.50
2009,04,24,07,10,1.50
2009,04,24,07,11,1.60
2009,04,24,07,12,1.60
2009,04,24,07,13,1.70
2009,04,24,07,14,1.70
2009,04,24,07,15,1.80
2009,04,24,07,16,1.80
2009,04,24,07,17,1.80
2009,04,24,07,18,1.90
2009,04,24,07,19,1.90
2009,04,24,07,20,2.00
2009,04,24,07,21,2.00
2009,04,24,07,22,2.10
2009,04,24,07,23,2.10
2009,04,24,07,24,2.20
2009,04,24,07,25,2.20
2009,04,24,07,26,2.20
2009,04,24,07,27,2.30
2009,04,24,07,28,2.30
2009,04,24,07,29,2.30
2009,04,24,07,30,2.40
2009,04,24,07,31,2.40
2009,04,24,07,32,2.50
2009,04,24,07,33,2.50
2009,04,24,07,34,2.60
2009,04,24,07,35,2.70
2009,04,24,07,36,2.70
2009,04,24,07,37,2.80
2009,04,24,07,38,2.90
2009,04,24,07,39,3.00
2009,04,24,07,40,3.10
2009,04,24,07,41,3.20
2009,04,24,07,42,3.30
2009,04,24,07,43,3.30
2009,04,24,07,44,3.40
2009,04,24,07,45,3.50
2009,04,24,07,46,3.60
2009,04,24,07,47,3.70
2009,04,24,07,48,3.80
2009,04,24,07,49,4.00
2009,04,24,07,50,4.10
2009,04,24,07,51,4.30
2009,04,24,07,52,4.50
2009,04,24,07,53,4.60
2009,04,24,07,54,4.80
2009,04,24,07,55,5.10
2009,04,24,07,56,5.30
2009,04,24,07,57,5.50
2009,04,24,07,58,5.70
2009,04,24,07,59,5.90
2009,04,24,08,00,6.10
2009,04,24,08,01,6.20
2009,04,24,08,02,6.30
2009,04,24,08,03,6.50
2009,04,24,08,04,6.60
2009,04,24,08,05,6.70
2009,04,24,08,06,6.80
2009,04,24,08,07,6.80
2009,04,24,08,08,6.90
2009,04,24,08,09,7.00
2009,04,24,08,10,7.00
2009,04,24,08,11,7.10
2009,04,24,08,12,7.10
2009,04,24,08,13,7.10
2009,04,24,08,14,7.20
2009,04,24,08,15,7.20
2009,04,24,08,16,7.10
2009,04,24,08,17,7.10
2009,04,24,08,18,7.10
2009,04,24,08,19,7.20
2009,04,24,08,20,7.20
2009,04,24,08,21,7.30
2009,04,24,08,22,7.40
2009,04,24,08,23,7.50
2009,04,24,08,24,7.60
2009,04,24,08,25,7.60
2009,04,24,08,26,7.60
2009,04,24,08,27,7.70
2009,04,24,08,28,7.70
2009,04,24,08,29,7.70
2009,04,24,08,30,7.70
2009,04,24,08,31,7.80
2009,04,24,08,32,7.80
2009,04,24,08,33,7.80
2009,04,24,08,34,7.80
2009,04,24,08,35,7.80
2009,04,24,08,36,7.70
2009,04,24,08,37,7.70
2009,04,24,08,38,7.70
2009,04,24,08,39,7.70
2009,04,24,08,40,7.70
2009,04,24,08,41,7.60
2009,04,24,08,42,7.60
2009,04,24,08,43,7.60
2009,04,24,08,44,7.60
2009,04,24,08,45,7.70
2009,04,24,08,46,7.70
2009,04,24,08,47,7.80
2009,04,24,08,48,7.80
2009,04,24,08,49,7.80
2009,04,24,08,50,7.90
2009,04,24,08,51,7.90
2009,04,24,08,52,8.00
2009,04,24,08,53,8.10
2009,04,24,08,54,8.10
2009,04,24,08,55,8.20
2009,04,24,08,56,8.30
2009,04,24,08,57,8.40
2009,04,24,08,58,8.40
2009,04,24,08,59,8.50
2009,04,24,09,00,8.60
2009,04,24,09,01,8.70
2009,04,24,09,02,8.70
2009,04,24,09,03,8.80
2009,04,24,09,04,8.80
2009,04,24,09,05,8.80
2009,04,24,09,06,8.80
2009,04,24,09,07,8.80
2009,04,24,09,08,8.90
2009,04,24,09,09,8.90
2009,04,24,09,10,9.00
2009,04,24,09,11,9.10
2009,04,24,09,12,9.20
2009,04,24,09,13,9.20
2009,04,24,09,14,9.20
2009,04,24,09,15,9.20
2009,04,24,09,16,9.20
2009,04,24,09,17,9.20
2009,04,24,09,18,9.20
2009,04,24,09,19,9.20
2009,04,24,09,20,9.20
2009,04,24,09,21,9.20
2009,04,24,09,22,9.20
2009,04,24,09,23,9.20
2009,04,24,09,24,9.30
2009,04,24,09,25,9.40
2009,04,24,09,26,9.60
2009,04,24,09,27,9.70
2009,04,24,09,28,9.70
2009,04,24,09,29,9.70
2009,04,24,09,30,9.80
2009,04,24,09,31,9.80
2009,04,24,09,32,9.90
2009,04,24,09,33,9.90
2009,04,24,09,34,9.90
2009,04,24,09,35,9.90
2009,04,24,09,36,9.90
2009,04,24,09,37,9.90
2009,04,24,09,38,10.00
2009,04,24,09,39,10.00
2009,04,24,09,40,10.10
2009,04,24,09,41,10.00
2009,04,24,09,42,9.90
2009,04,24,09,43,9.90
2009,04,24,09,44,9.90
2009,04,24,09,45,9.90
2009,04,24,09,46,9.90
2009,04,24,09,47,9.90
2009,04,24,09,48,9.90
2009,04,24,09,49,10.00
2009,04,24,09,50,10.10
2009,04,24,09,51,10.20
2009,04,24,09,52,10.40
2009,04,24,09,53,10.60
2009,04,24,09,54,10.60
2009,04,24,09,55,10.60
2009,04,24,09,56,10.60
2009,04,24,09,57,10.60
2009,04,24,09,58,10.60
2009,04,24,09,59,10.60
2009,04,24,10,00,10.60
2009,04,24,10,01,10.60
2009,04,24,10,02,10.60
2009,04,24,10,03,10.70
2009,04,24,10,04,10.60
2009,04,24,10,05,10.60
2009,04,24,10,06,10.60
2009,04,24,10,07,10.50
2009,04,24,10,08,10.40
2009,04,24,10,09,10.30
2009,04,24,10,10,10.30
2009,04,24,10,11,10.20
2009,04,24,10,12,10.20
2009,04,24,10,13,10.30
2009,04,24,10,14,10.40
2009,04,24,10,15,10.50
2009,04,24,10,16,10.60
2009,04,24,10,17,10.70
2009,04,24,10,18,10.80
2009,04,24,10,19,10.90
2009,04,24,10,20,10.90
2009,04,24,10,21,11.10
2009,04,24,10,22,11.20
2009,04,24,10,23,11.30
2009,04,24,10,24,11.40
2009,04,24,10,25,11.30
2009,04,24,10,26,11.20
2009,04,24,10,27,11.20
2009,04,24,10,28,11.20
2009,04,24,10,29,11.30
2009,04,24,10,30,11.30
2009,04,24,10,31,11.40
2009,04,24,10,32,11.40
2009,04,24,10,33,11.40
2009,04,24,10,34,11.50
2009,04,24,10,35,11.60
2009,04,24,10,36,11.60
2009,04,24,10,37,11.70
2009,04,24,10,38,11.60
2009,04,24,10,39,11.60
2009,04,24,10,40,11.50
2009,04,24,10,41,11.40
2009,04,24,10,42,11.40
2009,04,24,10,43,11.40
2009,04,24,10,44,11.50
2009,04,24,10,45,11.60
2009,04,24,10,46,11.60
2009,04,24,10,47,11.80
2009,04,24,10,48,11.80
2009,04,24,10,49,11.90
2009,04,24,10,50,11.90
2009,04,24,10,51,11.80
2009,04,24,10,52,11.90
2009,04,24,10,53,11.90
2009,04,24,10,54,12.00
2009,04,24,10,55,11.80
2009,04,24,10,56,11.80
2009,04,24,10,57,11.80
2009,04,24,10,58,11.80
2009,04,24,10,59,11.70
2009,04,24,11,00,11.60
2009,04,24,11,01,11.40
2009,04,24,11,02,11.40
2009,04,24,11,03,11.40
2009,04,24,11,04,11.30
2009,04,24,11,05,11.20
2009,04,24,11,06,11.10
2009,04,24,11,07,11.00
2009,04,24,11,08,11.00
2009,04,24,11,09,11.10
2009,04,24,11,10,11.20
2009,04,24,11,11,11.20
2009,04,24,11,12,11.20
2009,04,24,11,13,11.30
2009,04,24,11,14,11.30
2009,04,24,11,15,11.30
2009,04,24,11,16,11.30
2009,04,24,11,17,11.30
2009,04,24,11,18,11.40
2009,04,24,11,19,11.40
2009,04,24,11,20,11.30
2009,04,24,11,21,11.20
2009,04,24,11,22,11.10
2009,04,24,11,23,10.90
2009,04,24,11,24,10.90
2009,04,24,11,25,10.90
2009,04,24,11,26,11.10
2009,04,24,11,27,11.00
2009,04,24,11,28,11.10
2009,04,24,11,29,11.10
2009,04,24,11,30,11.10
2009,04,24,11,31,11.10
2009,04,24,11,32,11.20
2009,04,24,11,33,11.20
2009,04,24,11,34,11.10
2009,04,24,11,35,11.30
2009,04,24,11,36,11.30
2009,04,24,11,37,11.20
2009,04,24,11,38,11.10
2009,04,24,11,39,11.10
2009,04,24,11,40,11.10
2009,04,24,11,41,11.00
2009,04,24,11,42,11.00
2009,04,24,11,43,11.00
2009,04,24,11,44,10.90
2009,04,24,11,45,10.90
2009,04,24,11,46,10.90
2009,04,24,11,47,11.10
2009,04,24,11,48,11.10
2009,04,24,11,49,11.00
2009,04,24,11,50,10.90
2009,04,24,11,51,10.90
2009,04,24,11,52,10.90
2009,04,24,11,53,10.80
2009,04,24,11,54,10.80
2009,04,24,11,55,10.80
2009,04,24,11,56,10.70
2009,04,24,11,57,10.70
2009,04,24,11,58,10.90
2009,04,24,11,59,10.90
2009,04,24,12,00,10.90
2009,04,24,12,01,11.00
2009,04,24,12,02,11.10
2009,04,24,12,03,11.10
2009,04,24,12,04,11.20
2009,04,24,12,05,11.20
2009,04,24,12,06,11.10
2009,04,24,12,07,11.10
2009,04,24,12,08,11.00
2009,04,24,12,09,10.90
2009,04,24,12,10,10.80
2009,04,24,12,11,10.80
2009,04,24,12,12,10.80
2009,04,24,12,13,10.80
2009,04,24,12,14,10.80
2009,04,24,12,15,10.90
2009,04,24,12,16,11.10
2009,04,24,12,17,11.30
2009,04,24,12,18,11.50
2009,04,24,12,19,11.70
2009,04,24,12,20,11.70
2009,04,24,12,21,11.70
2009,04,24,12,22,11.60
2009,04,24,12,23,11.50
2009,04,24,12,24,11.40
2009,04,24,12,25,11.30
2009,04,24,12,26,11.10
2009,04,24,12,27,11.00
2009,04,24,12,28,11.10
2009,04,24,12,29,11.20
2009,04,24,12,30,11.20
2009,04,24,12,31,11.30
2009,04,24,12,32,11.40
2009,04,24,12,33,11.40
2009,04,24,12,34,11.50
2009,04,24,12,35,11.40
2009,04,24,12,36,11.30
2009,04,24,12,37,11.20
2009,04,24,12,38,11.00
2009,04,24,12,39,10.90
2009,04,24,12,40,10.90
2009,04,24,12,41,11.00
2009,04,24,12,42,11.00
2009,04,24,12,43,11.00
2009,04,24,12,44,10.90
2009,04,24,12,45,10.90
2009,04,24,12,46,10.90
2009,04,24,12,47,11.00
2009,04,24,12,48,11.10
2009,04,24,12,49,10.90
2009,04,24,12,50,10.90
2009,04,24,12,51,10.90
2009,04,24,12,52,10.90
2009,04,24,12,53,10.90
2009,04,24,12,54,10.90
2009,04,24,12,55,10.90
2009,04,24,12,56,10.90
2009,04,24,12,57,10.90
2009,04,24,12,58,10.80
2009,04,24,12,59,10.90
2009,04,24,13,00,11.00
2009,04,24,13,01,10.90
2009,04,24,13,02,10.80
2009,04,24,13,03,10.80
2009,04,24,13,04,10.80
2009,04,24,13,05,10.90
2009,04,24,13,06,10.90
2009,04,24,13,07,10.80
2009,04,24,13,08,10.70
2009,04,24,13,09,10.60
2009,04,24,13,10,10.60
2009,04,24,13,11,10.60
2009,04,24,13,12,10.60
2009,04,24,13,13,10.60
2009,04,24,13,14,10.60
2009,04,24,13,15,10.70
2009,04,24,13,16,10.90
2009,04,24,13,17,11.00
2009,04,24,13,18,11.00
2009,04,24,13,19,11.10
2009,04,24,13,20,11.00
2009,04,24,13,21,11.10
2009,04,24,13,22,11.30
2009,04,24,13,23,11.20
2009,04,24,13,24,11.10
2009,04,24,13,25,11.10
2009,04,24,13,26,11.10
2009,04,24,13,27,10.90
2009,04,24,13,28,10.70
2009,04,24,13,29,10.60
2009,04,24,13,30,10.60
2009,04,24,13,31,10.60
2009,04,24,13,32,10.50
2009,04,24,13,33,10.40
2009,04,24,13,34,10.50
2009,04,24,13,35,10.60
2009,04,24,13,36,10.60
2009,04,24,13,37,10.60
2009,04,24,13,38,10.70
2009,04,24,13,39,10.70
2009,04,24,13,40,10.60
2009,04,24,13,41,10.60
2009,04,24,13,42,10.60
2009,04,24,13,43,10.60
2009,04,24,13,44,10.50
2009,04,24,13,45,10.30
2009,04,24,13,46,10.10
2009,04,24,13,47,10.30
2009,04,24,13,48,10.40
2009,04,24,13,49,10.60
2009,04,24,13,50,10.60
2009,04,24,13,51,10.60
2009,04,24,13,52,10.50
2009,04,24,13,53,10.40
2009,04,24,13,54,10.60
2009,04,24,13,55,10.70
2009,04,24,13,56,10.90
2009,04,24,13,57,11.00
2009,04,24,13,58,11.10
2009,04,24,13,59,11.10
2009,04,24,14,00,11.10
2009,04,24,14,01,10.90
2009,04,24,14,02,11.00
2009,04,24,14,03,11.00
2009,04,24,14,04,11.10
2009,04,24,14,05,11.20
2009,04,24,14,06,11.10
2009,04,24,14,07,11.10
2009,04,24,14,08,11.10
2009,04,24,14,09,11.10
2009,04,24,14,10,11.10
2009,04,24,14,11,11.30
2009,04,24,14,12,11.40
2009,04,24,14,13,11.60
2009,04,24,14,14,11.70
2009,04,24,14,15,11.80
2009,04,24,14,16,11.80
2009,04,24,14,17,11.80
2009,04,24,14,18,11.90
2009,04,24,14,19,11.90
2009,04,24,14,20,11.60
2009,04,24,14,21,11.50
2009,04,24,14,22,11.40
2009,04,24,14,23,11.40
2009,04,24,14,24,11.30
2009,04,24,14,25,11.20
2009,04,24,14,26,11.20
2009,04,24,14,27,11.10
2009,04,24,14,28,11.10
2009,04,24,14,29,11.20
2009,04,24,14,30,11.30
2009,04,24,14,31,11.40
2009,04,24,14,32,11.40
2009,04,24,14,33,11.60
2009,04,24,14,34,11.80
2009,04,24,14,35,11.80
2009,04,24,14,36,11.80
2009,04,24,14,37,11.70
2009,04,24,14,38,11.60
2009,04,24,14,39,11.60
2009,04,24,14,40,11.60
2009,04,24,14,41,11.60
2009,04,24,14,42,11.60
2009,04,24,14,43,11.60
2009,04,24,14,44,11.60
2009,04,24,14,45,11.70
2009,04,24,14,46,11.90
2009,04,24,14,47,12.10
2009,04,24,14,48,12.20
2009,04,24,14,49,12.30
2009,04,24,14,50,12.30
2009,04,24,14,51,12.30
2009,04,24,14,52,12.20
2009,04,24,14,53,12.20
2009,04,24,14,54,12.20
2009,04,24,14,55,12.30
2009,04,24,14,56,12.40
2009,04,24,14,57,12.50
2009,04,24,14,58,12.60
2009,04,24,14,59,12.70
2009,04,24,15,00,12.80
2009,04,24,15,01,13.10
2009,04,24,15,02,13.30
2009,04,24,15,03,13.50
2009,04,24,15,04,13.70
2009,04,24,15,05,13.90
2009,04,24,15,06,14.20
2009,04,24,15,07,14.50
2009,04,24,15,08,14.60
2009,04,24,15,09,14.80
2009,04,24,15,10,14.80
2009,04,24,15,11,14.80
2009,04,24,15,12,14.80
2009,04,24,15,13,14.90
2009,04,24,15,14,15.00
2009,04,24,15,15,15.10
2009,04,24,15,16,15.20
2009,04,24,15,17,15.30
2009,04,24,15,18,15.30
2009,04,24,15,19,15.30
2009,04,24,15,20,15.30
2009,04,24,15,21,15.10
2009,04,24,15,22,15.10
2009,04,24,15,23,15.10
2009,04,24,15,24,15.10
2009,04,24,15,25,15.20
2009,04,24,15,26,15.30
2009,04,24,15,27,15.40
2009,04,24,15,28,15.30
2009,04,24,15,29,15.30
2009,04,24,15,30,15.20
2009,04,24,15,31,15.20
2009,04,24,15,32,15.20
2009,04,24,15,33,15.20
2009,04,24,15,34,15.20
2009,04,24,15,35,15.30
2009,04,24,15,36,15.40
2009,04,24,15,37,15.40
2009,04,24,15,38,15.40
2009,04,24,15,39,15.30
2009,04,24,15,40,15.20
2009,04,24,15,41,15.20
2009,04,24,15,42,15.20
2009,04,24,15,43,15.10
2009,04,24,15,44,15.10
2009,04,24,15,45,15.10
2009,04,24,15,46,15.20
2009,04,24,15,47,15.10
2009,04,24,15,48,15.10
2009,04,24,15,49,15.10
2009,04,24,15,50,15.20
2009,04,24,15,51,15.10
2009,04,24,15,52,15.10
2009,04,24,15,53,15.10
2009,04,24,15,54,15.10
2009,04,24,15,55,15.10
2009,04,24,15,56,15.10
2009,04,24,15,57,15.10
2009,04,24,15,58,15.20
2009,04,24,15,59,15.00
2009,04,24,16,00,14.90
2009,04,24,16,01,14.80
2009,04,24,16,02,14.80
2009,04,24,16,03,14.90
2009,04,24,16,04,14.90
2009,04,24,16,05,14.90
2009,04,24,16,06,15.00
2009,04,24,16,07,15.00
2009,04,24,16,08,15.00
2009,04,24,16,09,15.10
2009,04,24,16,10,15.10
2009,04,24,16,11,15.20
2009,04,24,16,12,15.20
2009,04,24,16,13,15.20
2009,04,24,16,14,15.10
2009,04,24,16,15,15.10
2009,04,24,16,16,15.00
2009,04,24,16,17,15.00
2009,04,24,16,18,15.00
2009,04,24,16,19,14.90
2009,04,24,16,20,15.00
2009,04,24,16,21,15.00
2009,04,24,16,22,15.00
2009,04,24,16,23,14.90
2009,04,24,16,24,14.80
2009,04,24,16,25,14.80
2009,04,24,16,26,14.80
2009,04,24,16,27,14.70
2009,04,24,16,28,14.70
2009,04,24,16,29,14.70
2009,04,24,16,30,14.80
2009,04,24,16,31,14.90
2009,04,24,16,32,14.90
2009,04,24,16,33,14.90
2009,04,24,16,34,14.90
2009,04,24,16,35,14.80
2009,04,24,16,36,14.80
2009,04,24,16,37,14.90
2009,04,24,16,38,14.90
2009,04,24,16,39,14.90
2009,04,24,16,40,15.00
2009,04,24,16,41,15.00
2009,04,24,16,42,15.10
2009,04,24,16,43,15.10
2009,04,24,16,44,15.10
2009,04,24,16,45,15.20
2009,04,24,16,46,15.10
2009,04,24,16,47,15.00
2009,04,24,16,48,15.00
2009,04,24,16,49,14.90
2009,04,24,16,50,14.80
2009,04,24,16,51,14.80
2009,04,24,16,52,14.80
2009,04,24,16,53,14.80
2009,04,24,16,54,14.80
2009,04,24,16,55,14.80
2009,04,24,16,56,14.80
2009,04,24,16,57,14.90
2009,04,24,16,58,15.00
2009,04,24,16,59,15.00
2009,04,24,17,00,15.10
2009,04,24,17,01,15.20
2009,04,24,17,02,15.20
2009,04,24,17,03,15.10
2009,04,24,17,04,15.00
2009,04,24,17,05,15.00
2009,04,24,17,06,14.90
2009,04,24,17,07,14.90
2009,04,24,17,08,14.90
2009,04,24,17,09,14.90
2009,04,24,17,10,14.80
2009,04,24,17,11,14.80
2009,04,24,17,12,14.80
2009,04,24,17,13,14.80
2009,04,24,17,14,14.80
2009,04,24,17,15,14.70
2009,04,24,17,16,14.60
2009,04,24,17,17,14.60
2009,04,24,17,18,14.60
2009,04,24,17,19,14.60
2009,04,24,17,20,14.50
2009,04,24,17,21,14.50
2009,04,24,17,22,14.30
2009,04,24,17,23,14.30
2009,04,24,17,24,14.50
2009,04,24,17,25,14.70
2009,04,24,17,26,14.70
2009,04,24,17,27,14.70
2009,04,24,17,28,14.80
2009,04,24,17,29,14.80
2009,04,24,17,30,14.80
2009,04,24,17,31,14.80
2009,04,24,17,32,14.70
2009,04,24,17,33,14.60
2009,04,24,17,34,14.50
2009,04,24,17,35,14.50
2009,04,24,17,36,14.50
2009,04,24,17,37,14.50
2009,04,24,17,38,14.50
2009,04,24,17,39,14.40
2009,04,24,17,40,14.20
2009,04,24,17,41,14.20
2009,04,24,17,42,14.20
2009,04,24,17,43,14.20
2009,04,24,17,44,14.20